Location: Unspecified
(35.6961°N, 0.0000°E)
Time: 01:49:13
(UTC+00:00)

S-56A Canister/Altair - Pass Details

Date: 02 June 2019
Orbit: 633 x 2499 km, 38.9° (Epoch: 16 June)

Event Time Altitude Azimuth Distance (km) Brightness Sun altitude
Rises 05:05:28 0° 282° (WNW) 3,966 10.7 2.8°
Reaches altitude 10° 05:08:13 10° 272° (W) 3,240 10.2 3.3°
Maximum altitude 05:15:18 31° 213° (SSW) 2,542 9.8 4.6°
Drops below altitude 10° 05:25:03 10° 158° (SSE) 4,515 11.5 6.5°
Sets 05:29:45 0° 149° (SSE) 5,771 12.1 7.3°
